Location: Newark
(41.6500°N, 71.4833°W)
Time: 02:12:49
(UTC+00:00)

A-11 Canister half - Pass Details

Date: 20 January 2020
Orbit: 1517 x 1683 km, 47.2° (Epoch: 19 February)

Event Time Altitude Azimuth Distance (km) Brightness Sun altitude
Rises 06:31:13 0° 247° (WSW) 4,704 - -60.7°
Reaches altitude 10° 06:34:18 10° 248° (WSW) 3,707 - -60.3°
Maximum altitude 06:43:39 83° 336° (NNW) 1,532 - -58.9°
Exits shadow 06:51:04 18° 65° (ENE) 3,090 10.8 -57.7°
Drops below altitude 10° 06:52:57 10° 66° (ENE) 3,686 11.3 -57.4°
Sets 06:56:00 0° 67° (ENE) 4,677 12.0 -56.9°
